This is the latest recevied weather packets stored in our database for station/object N9BSW. If no packets are shown the sender has not sent any weather packets the latest 10 day(s).
| Time | Temp. | Humidity | Pressure | Rain* | Wind** | Luminosity | Snow |
|---|---|---|---|---|---|---|---|
| 1777819491 | 14.44° C | 43% | 1019 hPa | 0 mm | - | 575 W/m² | - |
| 1777819189 | 13.89° C | 43% | 1019 hPa | 0 mm | - | 561 W/m² | - |
| 1777818885 | 13.33° C | 44% | 1019.1 hPa | 0 mm | - | 547 W/m² | - |
| 1777818581 | 13.89° C | 43% | 1019.2 hPa | 0 mm | - | 533 W/m² | - |
| 1777818279 | 13.33° C | 44% | 1019.1 hPa | 0 mm | - | 516 W/m² | - |
| 1777817975 | 13.33° C | 43% | 1019.1 hPa | 0 mm | - | 501 W/m² | - |
| 1777817672 | 12.78° C | 43% | 1019.3 hPa | 0 mm | - | 485 W/m² | - |
| 1777817369 | 12.78° C | 44% | 1019.2 hPa | 0 mm | - | 470 W/m² | - |
| 1777817066 | 12.78° C | 45% | 1019.3 hPa | 0 mm | - | 452 W/m² | - |
| 1777816761 | 12.22° C | 44% | 1019.1 hPa | 0 mm | - | 437 W/m² | - |
| 1777816460 | 12.22° C | 44% | 1019.1 hPa | 0 mm | - | 421 W/m² | - |
| 1777816157 | 11.67° C | 48% | 1019.1 hPa | 0 mm | - | 407 W/m² | - |
| 1777815855 | 11.67° C | 49% | 1019.1 hPa | 0 mm | - | 390 W/m² | - |
| 1777815552 | 11.11° C | 50% | 1019.4 hPa | 0 mm | - | 373 W/m² | - |
| 1777815250 | 11.11° C | 50% | 1019 hPa | 0 mm | - | 357 W/m² | - |
| 1777814945 | 10.56° C | 52% | 1019.1 hPa | 0 mm | - | 341 W/m² | - |
| 1777814642 | 10° C | 54% | 1019.1 hPa | 0 mm | - | 323 W/m² | - |
| 1777814339 | 10° C | 54% | 1019.3 hPa | 0 mm | - | 308 W/m² | - |
| 1777814035 | 10° C | 54% | 1019.2 hPa | 0 mm | - | 290 W/m² | - |
| 1777813733 | 9.44° C | 55% | 1019.2 hPa | 0 mm | - | 275 W/m² | - |
| 1777813430 | 9.44° C | 54% | 1019.3 hPa | 0 mm | - | 251 W/m² | - |
| 1777813127 | 8.89° C | 56% | 1019.4 hPa | 0 mm | - | 105 W/m² | - |
| 1777812825 | 8.89° C | 56% | 1019.1 hPa | 0 mm | - | 68 W/m² | - |
| 1777812521 | 8.89° C | 58% | 1019.3 hPa | 0 mm | - | 83 W/m² | - |
| 1777812219 | 8.33° C | 58% | 1019.5 hPa | 0 mm | - | 61 W/m² | - |
* Rain latest hour (hover to see other rain measurements)
** Current wind speed in m/s (hover to see current wind gust speed)